Hays, KS

11:17 PM CST on December 11, 2019 (GMT -0600)
Hays Regional

Weather History for KHYS - October, 2019

Change the Weather History Date:

Friday, October 11, 2019

  Actual Average Record
Temperature  
Mean Temperature 39 °F -  
Max Temperature 53 °F 68 °F 95 °F (2015)
Min Temperature 26 °F 42 °F 30 °F (2017)
Degree Days  
Heating Degree Days 26    
Moisture  
Dew Point 17 °F    
Average Humidity 50    
Maximum Humidity 78    
Minimum Humidity 19    
Precipitation  
Precipitation 0.00 in - - ()
Sea Level Pressure  
Sea Level Pressure 30.31 in    
Wind  
Wind Speed 16 mph (NW)    
Max Wind Speed 26 mph    
Max Gust Speed 36 mph    
Visibility 10 miles    
Events      
Averages and records for this station are not official NWS values.
T = Trace of Precipitation, MM = Missing Value Source: NWS Daily Summary

Daily Weather History Graph

Daily Weather History Graph

Search for Another Location

Airport or City:

Astronomy

Oct. 11, 2019 Rise Set
Actual Time 7:42 AM CDT 7:04 PM CDT
Civil Twilight 7:15 AM CDT 7:31 PM CDT
Nautical Twilight 6:44 AM CDT 8:02 PM CDT
Astronomical Twilight 6:13 AM CDT 8:33 PM CDT
Moon 6:32 PM CDT (10/11) 5:26 AM CDT (10/11)
Length of Visible Light 12h 15m
Length of Day
11h 22m
Waxing Gibbous, 96% of the Moon is Illuminated
Oct 11
Waxing Gibbous
Oct 13
Full
Oct 21
Last Quarter
Oct 27
New
Nov 4
First Quarter

Hourly Weather History & Observations

Time (CDT) Temp. Windchill Dew Point Humidity Pressure Visibility Wind Dir Wind Speed Gust Speed Precip Events Conditions
12:56 AM 33.1 °F 21.9 °F 21.0 °F 61% 30.29 in 10.0 mi NNW 18.4 mph 29.9 mph N/A   Clear
1:56 AM 30.9 °F 19.8 °F 21.0 °F 67% 30.30 in 10.0 mi NW 16.1 mph - N/A   Clear
2:56 AM 30.0 °F 19.1 °F 21.0 °F 69% 30.31 in 10.0 mi NW 15.0 mph 19.6 mph N/A   Clear
3:56 AM 28.9 °F 17.7 °F 19.9 °F 69% 30.31 in 10.0 mi NW 15.0 mph - N/A   Clear
4:56 AM 28.9 °F 18.6 °F 19.9 °F 69% 30.32 in 10.0 mi NW 12.7 mph - N/A   Clear
5:56 AM 27.0 °F 15.6 °F 21.0 °F 78% 30.35 in 10.0 mi WNW 13.8 mph - N/A   Clear
6:56 AM 27.0 °F 16.1 °F 19.0 °F 72% 30.36 in 10.0 mi WNW 12.7 mph - N/A   Clear
7:56 AM 26.1 °F 15.0 °F 18.0 °F 71% 30.38 in 10.0 mi WNW 12.7 mph - N/A   Clear
8:56 AM 28.9 °F 17.3 °F 19.0 °F 67% 30.40 in 10.0 mi WNW 16.1 mph - N/A   Clear
9:56 AM 33.1 °F 20.6 °F 17.1 °F 52% 30.40 in 10.0 mi NW 23.0 mph - N/A   Clear
10:56 AM 37.0 °F 26.4 °F 16.0 °F 42% 30.38 in 10.0 mi NW 20.7 mph 29.9 mph N/A   Clear
11:56 AM 41.0 °F 32.5 °F 17.1 °F 38% 30.36 in 10.0 mi NNW 17.3 mph 28.8 mph N/A   Clear
12:56 PM 44.1 °F 34.8 °F 15.1 °F 31% 30.34 in 10.0 mi NW 25.3 mph 31.1 mph N/A   Clear
1:56 PM 48.0 °F - 14.0 °F 26% 30.30 in 10.0 mi NW 26.5 mph 35.7 mph N/A   Clear
2:56 PM 48.9 °F - 14.0 °F 25% 30.28 in 10.0 mi WNW 23.0 mph 32.2 mph N/A   Clear
3:56 PM 51.1 °F - 10.9 °F 20% 30.27 in 10.0 mi NW 24.2 mph 33.4 mph N/A   Clear
4:56 PM 52.0 °F - 10.0 °F 19% 30.25 in 10.0 mi NW 21.9 mph 31.1 mph N/A   Clear
5:56 PM 51.1 °F - 10.0 °F 19% 30.26 in 10.0 mi NW 17.3 mph 31.1 mph N/A   Clear
6:56 PM 48.0 °F - 12.0 °F 24% 30.25 in 10.0 mi NW 10.4 mph - N/A   Clear
7:56 PM 42.1 °F 40.2 °F 15.1 °F 34% 30.27 in 9.0 mi West 3.5 mph - N/A   Clear
9:56 PM 32.0 °F - 21.9 °F 66% 30.28 in 10.0 mi Calm Calm - N/A   Clear
10:56 PM 30.9 °F 24.3 °F 23.0 °F 72% 30.27 in 10.0 mi WSW 6.9 mph - N/A   Clear
11:56 PM 30.9 °F 26.2 °F 21.0 °F 67% 30.25 in 10.0 mi SW 4.6 mph - N/A   Clear